When you browse on this site, cookies collect data to enhance your experience and personalize the content and advertising you see.
Visit our Privacy Policy to learn more. By continuing to use the site, you agree to this use of cookies and data.
  • în România
  • Lista ţărilor
  • Pe 7 zile
  • Temperatura apei
  • Meteo pe hartă
  • Widget-uri
  • user-avatar
    Intrare

    Meteo pe oră la San Carlos

    Astăzi, 13 Decembrie, Vineri

    Timp Temperatura Precipitaţii Vânt Presiune Umiditate
    00:00 +24°C° 0 mm 1 m/s 743 mmHg 90%
    01:00 +23°C° 0 mm 1 m/s 743 mmHg 91%
    02:00 +23°C° 0 mm 1 m/s 743 mmHg 91%
    03:00 +23°C° 0 mm 1 m/s 743 mmHg 91%
    04:00 +23°C° 0 mm 1 m/s 743 mmHg 91%
    05:00 +22°C° 0 mm 0 m/s 743 mmHg 89%
    06:00 +22°C° 0 mm 0 m/s 743 mmHg 86%
    07:00 +23°C° 0 mm 0 m/s 744 mmHg 84%
    08:00 +27°C° 0 mm 1 m/s 744 mmHg 75%
    09:00 +29°C° 0 mm 1 m/s 744 mmHg 66%
    10:00 +32°C° 0 mm 1 m/s 744 mmHg 57%
    11:00 +32°C° 0 mm 1 m/s 743 mmHg 56%
    12:00 +32°C° 0 mm 1 m/s 743 mmHg 55%
    13:00 +32°C° 0 mm 1 m/s 742 mmHg 54%
    14:00 +32°C° 0 mm 1 m/s 741 mmHg 56%
    15:00 +32°C° 0 mm 1 m/s 741 mmHg 58%
    16:00 +32°C° 0 mm 1 m/s 741 mmHg 60%
    17:00 +30°C° 0 mm 1 m/s 741 mmHg 65%
    18:00 +28°C° 0 mm 1 m/s 742 mmHg 70%
    19:00 +26°C° 0 mm 1 m/s 742 mmHg 75%
    20:00 +26°C° 0 mm 1 m/s 743 mmHg 78%
    21:00 +26°C° 0 mm 1 m/s 743 mmHg 80%
    22:00 +25°C° 0 mm 1 m/s 744 mmHg 82%
    23:00 +25°C° 0 mm 1 m/s 743 mmHg 84%

    Mâine, 14 Decembrie, Sâmbătă

    Timp Temperatura Precipitaţii Vânt Presiune Umiditate
    00:00 +25°C° 0 mm 1 m/s 743 mmHg 86%
    01:00 +24°C° 0 mm 1 m/s 742 mmHg 87%
    02:00 +24°C° 0 mm 1 m/s 743 mmHg 88%
    03:00 +24°C° 0 mm 1 m/s 743 mmHg 88%
    04:00 +24°C° 0 mm 1 m/s 743 mmHg 89%
    05:00 +25°C° 0 mm 1 m/s 743 mmHg 86%
    06:00 +25°C° 0 mm 1 m/s 744 mmHg 84%
    07:00 +24°C° 0 mm 0 m/s 744 mmHg 81%
    08:00 +28°C° 0 mm 1 m/s 745 mmHg 74%
    09:00 +30°C° 0 mm 1 m/s 745 mmHg 66%
    10:00 +32°C° 0 mm 1 m/s 745 mmHg 59%
    11:00 +32°C° 0.1 mm 2 m/s 744 mmHg 58%
    12:00 +32°C° 0.1 mm 2 m/s 743 mmHg 57%
    13:00 +34°C° 0.1 mm 2 m/s 743 mmHg 56%
    14:00 +32°C° 0.2 mm 1 m/s 742 mmHg 60%
    15:00 +32°C° 0.2 mm 1 m/s 742 mmHg 64%
    16:00 +29°C° 0.2 mm 0 m/s 742 mmHg 67%
    17:00 +30°C° 0 mm 1 m/s 742 mmHg 72%
    18:00 +28°C° 0 mm 1 m/s 743 mmHg 77%
    19:00 +26°C° 0 mm 1 m/s 743 mmHg 82%
    20:00 +26°C° 0 mm 1 m/s 744 mmHg 83%
    21:00 +26°C° 0 mm 1 m/s 744 mmHg 84%
    22:00 +25°C° 0 mm 1 m/s 744 mmHg 85%
    23:00 +25°C° 0 mm 1 m/s 744 mmHg 86%

    Poimâine, 15 Decembrie, Duminică

    Timp Temperatura Precipitaţii Vânt Presiune Umiditate
    00:00 +25°C° 0 mm 1 m/s 744 mmHg 86%
    01:00 +25°C° 0 mm 1 m/s 743 mmHg 87%
    02:00 +25°C° 0 mm 1 m/s 744 mmHg 87%
    03:00 +24°C° 0 mm 1 m/s 744 mmHg 88%
    04:00 +24°C° 0 mm 1 m/s 744 mmHg 88%
    05:00 +25°C° 0 mm 1 m/s 744 mmHg 87%
    06:00 +26°C° 0 mm 1 m/s 745 mmHg 85%
    07:00 +26°C° 0 mm 1 m/s 745 mmHg 84%
    08:00 +28°C° 0.1 mm 1 m/s 746 mmHg 76%
    09:00 +29°C° 0.1 mm 2 m/s 746 mmHg 68%
    10:00 +31°C° 0.1 mm 2 m/s 746 mmHg 61%
    11:00 +32°C° 0.2 mm 2 m/s 745 mmHg 60%
    12:00 +32°C° 0.2 mm 2 m/s 744 mmHg 58%
    13:00 +33°C° 0.2 mm 1 m/s 743 mmHg 57%
    14:00 +32°C° 0.1 mm 1 m/s 743 mmHg 60%
    15:00 +32°C° 0.1 mm 1 m/s 743 mmHg 62%
    16:00 +30°C° 0.1 mm 0 m/s 742 mmHg 65%
    17:00 +28°C° 0.1 mm 0 m/s 743 mmHg 70%
    18:00 +28°C° 0.1 mm 1 m/s 743 mmHg 75%
    19:00 +27°C° 0.1 mm 1 m/s 744 mmHg 81%
    20:00 +26°C° 0 mm 1 m/s 744 mmHg 82%
    21:00 +26°C° 0 mm 1 m/s 745 mmHg 84%
    22:00 +25°C° 0 mm 1 m/s 745 mmHg 86%
    23:00 +25°C° 0 mm 1 m/s 745 mmHg 87%

    16 Decembrie, Luni

    Timp Temperatura Precipitaţii Vânt Presiune Umiditate
    00:00 +25°C° 0 mm 1 m/s 744 mmHg 87%
    01:00 +24°C° 0 mm 1 m/s 744 mmHg 88%
    02:00 +24°C° 0 mm 1 m/s 744 mmHg 89%
    03:00 +24°C° 0 mm 1 m/s 744 mmHg 89%
    04:00 +24°C° 0 mm 1 m/s 743 mmHg 89%
    05:00 +24°C° 0 mm 1 m/s 744 mmHg 87%
    06:00 +25°C° 0 mm 1 m/s 745 mmHg 84%
    07:00 +26°C° 0 mm 1 m/s 745 mmHg 82%
    08:00 +28°C° 0 mm 1 m/s 745 mmHg 73%
    09:00 +31°C° 0 mm 1 m/s 745 mmHg 64%
    10:00 +33°C° 0 mm 1 m/s 746 mmHg 55%
    11:00 +31°C° 0.3 mm 0 m/s 745 mmHg 55%
    12:00 +31°C° 0.3 mm 0 m/s 744 mmHg 55%
    13:00 +32°C° 0.3 mm 0 m/s 743 mmHg 55%
    14:00 +33°C° 0.2 mm 1 m/s 743 mmHg 59%
    15:00 +32°C° 0.2 mm 1 m/s 742 mmHg 62%
    16:00 +31°C° 0.2 mm 1 m/s 742 mmHg 66%
    17:00 +30°C° 0.1 mm 1 m/s 742 mmHg 72%
    18:00 +28°C° 0.1 mm 1 m/s 743 mmHg 77%
    19:00 +26°C° 0.1 mm 2 m/s 743 mmHg 83%
    20:00 +26°C° 0 mm 2 m/s 743 mmHg 84%
    21:00 +25°C° 0 mm 1 m/s 744 mmHg 86%
    22:00 +25°C° 0 mm 1 m/s 744 mmHg 87%
    23:00 +24°C° 0 mm 1 m/s 744 mmHg 88%

    17 Decembrie, Marţi

    Timp Temperatura Precipitaţii Vânt Presiune Umiditate
    00:00 +24°C° 0 mm 1 m/s 743 mmHg 89%
    01:00 +24°C° 0 mm 1 m/s 743 mmHg 90%
    02:00 +24°C° 0 mm 1 m/s 743 mmHg 90%
    03:00 +23°C° 0 mm 1 m/s 743 mmHg 90%
    04:00 +23°C° 0 mm 1 m/s 743 mmHg 90%
    05:00 +22°C° 0 mm 0 m/s 744 mmHg 87%
    06:00 +23°C° 0 mm 0 m/s 744 mmHg 85%
    07:00 +23°C° 0 mm 0 m/s 745 mmHg 83%
    08:00 +27°C° 0 mm 1 m/s 745 mmHg 76%
    09:00 +29°C° 0 mm 1 m/s 745 mmHg 69%
    10:00 +31°C° 0 mm 2 m/s 745 mmHg 62%
    11:00 +32°C° 0.1 mm 2 m/s 744 mmHg 59%
    12:00 +32°C° 0.1 mm 2 m/s 743 mmHg 55%
    13:00 +34°C° 0.1 mm 2 m/s 742 mmHg 52%
    14:00 +33°C° 0 mm 1 m/s 742 mmHg 53%
    15:00 +32°C° 0 mm 1 m/s 741 mmHg 55%
    16:00 +32°C° 0 mm 1 m/s 741 mmHg 57%
    17:00 +30°C° 0 mm 1 m/s 741 mmHg 61%
    18:00 +29°C° 0 mm 1 m/s 742 mmHg 66%
    19:00 +27°C° 0 mm 1 m/s 742 mmHg 70%
    20:00 +26°C° 0 mm 1 m/s 743 mmHg 72%
    21:00 +26°C° 0 mm 1 m/s 743 mmHg 74%
    22:00 +25°C° 0 mm 1 m/s 744 mmHg 76%
    23:00 +25°C° 0 mm 1 m/s 744 mmHg 77%

    18 Decembrie, Miercuri

    Timp Temperatura Precipitaţii Vânt Presiune Umiditate
    00:00 +24°C° 0 mm 1 m/s 743 mmHg 78%
    01:00 +24°C° 0 mm 1 m/s 743 mmHg 79%
    02:00 +24°C° 0 mm 1 m/s 743 mmHg 80%
    03:00 +21°C° 0 mm 0 m/s 743 mmHg 81%
    04:00 +21°C° 0 mm 0 m/s 743 mmHg 83%
    05:00 +22°C° 0 mm 0 m/s 744 mmHg 81%
    06:00 +23°C° 0 mm 0 m/s 744 mmHg 79%
    07:00 +23°C° 0 mm 0 m/s 745 mmHg 77%
    08:00 +27°C° 0 mm 1 m/s 745 mmHg 69%
    09:00 +29°C° 0 mm 1 m/s 745 mmHg 61%
    10:00 +31°C° 0 mm 2 m/s 745 mmHg 54%
    11:00 +32°C° 0 mm 2 m/s 745 mmHg 51%
    12:00 +34°C° 0 mm 2 m/s 744 mmHg 48%
    13:00 +35°C° 0 mm 2 m/s 743 mmHg 45%
    14:00 +34°C° 0 mm 2 m/s 743 mmHg 48%
    15:00 +33°C° 0 mm 1 m/s 742 mmHg 50%
    16:00 +32°C° 0 mm 1 m/s 741 mmHg 53%
    17:00 +31°C° 0 mm 1 m/s 742 mmHg 57%
    18:00 +29°C° 0 mm 1 m/s 742 mmHg 62%
    19:00 +27°C° 0 mm 1 m/s 743 mmHg 66%
    20:00 +27°C° 0 mm 1 m/s 743 mmHg 70%
    21:00 +26°C° 0 mm 1 m/s 743 mmHg 74%
    22:00 +25°C° 0 mm 1 m/s 744 mmHg 77%
    23:00 +25°C° 0 mm 1 m/s 744 mmHg 80%
    Arată mai mult